• In Uzbekistan
  • List of Countries
  • For 7 days
  • Water Temperature
  • Satellite Maps
  • Weather Map
  • Weather Widgets
  • user-avatar
    Login

    Hourly Weather Durres

    Today, 26 June, Monday

    Time Temperature Precipitation Wind Pressure Humidity
    00:00 +24°C° 0 mm 3 mps 758 mmHg 77%
    01:00 +22°C° 0 mm 3 mps 757 mmHg 81%
    02:00 +23°C° 0 mm 2 mps 757 mmHg 81%
    03:00 +23°C° 0 mm 2 mps 757 mmHg 81%
    04:00 +23°C° 0 mm 2 mps 757 mmHg 81%
    05:00 +25°C° 0 mm 2 mps 757 mmHg 71%
    06:00 +28°C° 0 mm 2 mps 757 mmHg 60%
    07:00 +31°C° 0 mm 2 mps 757 mmHg 50%
    08:00 +32°C° 0 mm 2 mps 757 mmHg 46%
    09:00 +34°C° 0 mm 2 mps 757 mmHg 42%
    10:00 +36°C° 0 mm 3 mps 757 mmHg 38%
    11:00 +36°C° 0 mm 3 mps 757 mmHg 37%
    12:00 +37°C° 0 mm 3 mps 757 mmHg 36%
    13:00 +37°C° 0 mm 3 mps 757 mmHg 35%
    14:00 +36°C° 0 mm 3 mps 757 mmHg 36%
    15:00 +36°C° 0 mm 3 mps 757 mmHg 38%
    16:00 +35°C° 0 mm 4 mps 757 mmHg 39%
    17:00 +33°C° 0 mm 3 mps 757 mmHg 51%
    18:00 +29°C° 0 mm 3 mps 757 mmHg 64%
    19:00 +27°C° 0 mm 3 mps 757 mmHg 76%
    20:00 +25°C° 0 mm 2 mps 757 mmHg 81%
    21:00 +24°C° 0 mm 2 mps 757 mmHg 86%
    22:00 +23°C° 0 mm 2 mps 758 mmHg 91%
    23:00 +23°C° 0 mm 1 mps 758 mmHg 90%

    Tomorrow, 27 June, Tuesday

    Time Temperature Precipitation Wind Pressure Humidity
    00:00 +23°C° 0 mm 1 mps 758 mmHg 90%
    01:00 +23°C° 0 mm 1 mps 758 mmHg 89%
    02:00 +23°C° 0 mm 1 mps 758 mmHg 88%
    03:00 +22°C° 0 mm 1 mps 758 mmHg 88%
    04:00 +22°C° 0 mm 1 mps 758 mmHg 87%
    05:00 +25°C° 0 mm 1 mps 758 mmHg 77%
    06:00 +27°C° 0 mm 1 mps 758 mmHg 68%
    07:00 +29°C° 0 mm 1 mps 758 mmHg 59%
    08:00 +31°C° 0 mm 1 mps 758 mmHg 52%
    09:00 +33°C° 0 mm 1 mps 758 mmHg 45%
    10:00 +34°C° 0 mm 1 mps 758 mmHg 39%
    11:00 +36°C° 0 mm 2 mps 758 mmHg 36%
    12:00 +36°C° 0 mm 2 mps 757 mmHg 34%
    13:00 +37°C° 0 mm 3 mps 757 mmHg 32%
    14:00 +36°C° 0 mm 3 mps 757 mmHg 34%
    15:00 +36°C° 0 mm 2 mps 756 mmHg 36%
    16:00 +35°C° 0 mm 2 mps 756 mmHg 39%
    17:00 +31°C° 0 mm 2 mps 756 mmHg 50%
    18:00 +29°C° 0 mm 2 mps 756 mmHg 61%
    19:00 +26°C° 0 mm 2 mps 756 mmHg 72%
    20:00 +25°C° 0 mm 2 mps 756 mmHg 73%
    21:00 +24°C° 0 mm 3 mps 757 mmHg 75%
    22:00 +24°C° 0 mm 3 mps 757 mmHg 76%
    23:00 +22°C° 0 mm 3 mps 757 mmHg 74%

    Day after tomorrow, 28 June, Wednesday

    Time Temperature Precipitation Wind Pressure Humidity
    00:00 +22°C° 0 mm 4 mps 757 mmHg 71%
    01:00 +22°C° 0 mm 4 mps 757 mmHg 69%
    02:00 +22°C° 0 mm 4 mps 757 mmHg 65%
    03:00 +22°C° 0 mm 4 mps 756 mmHg 62%
    04:00 +22°C° 0 mm 5 mps 756 mmHg 59%
    05:00 +26°C° 0 mm 4 mps 756 mmHg 53%
    06:00 +28°C° 0 mm 4 mps 756 mmHg 48%
    07:00 +32°C° 0 mm 4 mps 756 mmHg 42%
    08:00 +33°C° 0 mm 5 mps 756 mmHg 38%
    09:00 +35°C° 0 mm 5 mps 756 mmHg 34%
    10:00 +36°C° 0 mm 6 mps 756 mmHg 30%
    11:00 +38°C° 0 mm 6 mps 756 mmHg 30%
    12:00 +38°C° 0 mm 6 mps 756 mmHg 30%
    13:00 +38°C° 0 mm 7 mps 756 mmHg 30%
    14:00 +38°C° 0 mm 6 mps 756 mmHg 32%
    15:00 +36°C° 0 mm 6 mps 756 mmHg 33%
    16:00 +36°C° 0 mm 6 mps 755 mmHg 35%
    17:00 +33°C° 0 mm 5 mps 756 mmHg 44%
    18:00 +30°C° 0 mm 5 mps 756 mmHg 53%
    19:00 +27°C° 0 mm 5 mps 756 mmHg 62%
    20:00 +27°C° 0 mm 5 mps 756 mmHg 62%
    21:00 +26°C° 0 mm 5 mps 756 mmHg 62%
    22:00 +25°C° 0 mm 5 mps 756 mmHg 61%
    23:00 +26°C° 0 mm 5 mps 756 mmHg 58%

    29 June, Thursday

    Time Temperature Precipitation Wind Pressure Humidity
    00:00 +26°C° 0 mm 5 mps 756 mmHg 55%
    01:00 +26°C° 0 mm 5 mps 756 mmHg 52%
    02:00 +26°C° 0 mm 5 mps 756 mmHg 51%
    03:00 +26°C° 0 mm 5 mps 756 mmHg 49%
    04:00 +26°C° 0 mm 5 mps 756 mmHg 48%
    05:00 +28°C° 0.1 mm 5 mps 756 mmHg 45%
    06:00 +30°C° 0.1 mm 5 mps 756 mmHg 42%
    07:00 +33°C° 0.1 mm 5 mps 756 mmHg 39%
    08:00 +35°C° 0 mm 7 mps 756 mmHg 34%
    09:00 +38°C° 0 mm 8 mps 756 mmHg 29%
    10:00 +40°C° 0 mm 10 mps 756 mmHg 24%
    11:00 +40°C° 0 mm 10 mps 756 mmHg 24%
    12:00 +42°C° 0 mm 10 mps 756 mmHg 24%
    13:00 +42°C° 0 mm 10 mps 756 mmHg 24%
    14:00 +40°C° 0 mm 10 mps 756 mmHg 26%
    15:00 +39°C° 0 mm 9 mps 756 mmHg 28%
    16:00 +39°C° 0 mm 9 mps 756 mmHg 31%
    17:00 +35°C° 0 mm 8 mps 756 mmHg 40%
    18:00 +32°C° 0 mm 7 mps 756 mmHg 49%
    19:00 +29°C° 0 mm 7 mps 757 mmHg 59%
    20:00 +28°C° 0 mm 6 mps 757 mmHg 59%
    21:00 +27°C° 0 mm 6 mps 758 mmHg 60%
    22:00 +26°C° 0 mm 6 mps 758 mmHg 60%
    23:00 +26°C° 0 mm 5 mps 758 mmHg 60%

    30 June, Friday

    Time Temperature Precipitation Wind Pressure Humidity
    00:00 +25°C° 0 mm 5 mps 758 mmHg 60%
    01:00 +25°C° 0 mm 4 mps 758 mmHg 59%
    02:00 +25°C° 0 mm 4 mps 758 mmHg 56%
    03:00 +25°C° 0 mm 3 mps 758 mmHg 53%
    04:00 +25°C° 0 mm 3 mps 758 mmHg 51%
    05:00 +28°C° 0 mm 3 mps 758 mmHg 47%
    06:00 +30°C° 0 mm 3 mps 759 mmHg 42%
    07:00 +33°C° 0 mm 3 mps 759 mmHg 38%
    08:00 +35°C° 0 mm 3 mps 759 mmHg 34%
    09:00 +37°C° 0 mm 3 mps 759 mmHg 29%
    10:00 +40°C° 0 mm 3 mps 759 mmHg 25%
    11:00 +41°C° 0 mm 4 mps 758 mmHg 25%
    12:00 +41°C° 0 mm 5 mps 758 mmHg 24%
    13:00 +42°C° 0 mm 5 mps 758 mmHg 24%
    14:00 +41°C° 0 mm 5 mps 757 mmHg 26%
    15:00 +41°C° 0 mm 5 mps 757 mmHg 27%
    16:00 +40°C° 0 mm 5 mps 757 mmHg 29%
    17:00 +36°C° 0 mm 4 mps 757 mmHg 38%
    18:00 +33°C° 0 mm 4 mps 757 mmHg 47%
    19:00 +29°C° 0 mm 4 mps 757 mmHg 57%
    20:00 +29°C° 0 mm 4 mps 757 mmHg 55%
    21:00 +28°C° 0 mm 4 mps 757 mmHg 52%
    22:00 +28°C° 0 mm 4 mps 757 mmHg 50%
    23:00 +28°C° 0 mm 4 mps 757 mmHg 48%

    1 July, Saturday

    Time Temperature Precipitation Wind Pressure Humidity
    00:00 +27°C° 0 mm 4 mps 756 mmHg 45%
    01:00 +27°C° 0 mm 5 mps 756 mmHg 43%
    02:00 +27°C° 0 mm 4 mps 756 mmHg 41%
    03:00 +28°C° 0 mm 4 mps 756 mmHg 39%
    04:00 +28°C° 0 mm 4 mps 755 mmHg 37%
    05:00 +30°C° 0 mm 4 mps 755 mmHg 35%
    06:00 +33°C° 0 mm 4 mps 756 mmHg 33%
    07:00 +35°C° 0 mm 4 mps 756 mmHg 31%
    08:00 +36°C° 0 mm 4 mps 756 mmHg 31%
    09:00 +37°C° 0 mm 4 mps 756 mmHg 30%
    10:00 +38°C° 0 mm 4 mps 756 mmHg 30%
    11:00 +38°C° 0 mm 4 mps 755 mmHg 31%
    12:00 +38°C° 0 mm 4 mps 755 mmHg 32%
    13:00 +40°C° 0 mm 4 mps 755 mmHg 34%
    14:00 +39°C° 0 mm 5 mps 755 mmHg 36%
    15:00 +37°C° 0 mm 5 mps 755 mmHg 39%
    16:00 +36°C° 0 mm 6 mps 754 mmHg 42%
    17:00 +34°C° 0 mm 6 mps 755 mmHg 56%
    18:00 +30°C° 0 mm 7 mps 755 mmHg 69%
    19:00 +27°C° 0 mm 7 mps 755 mmHg 82%
    20:00 +26°C° 0.1 mm 7 mps 755 mmHg 85%
    21:00 +24°C° 0.1 mm 6 mps 755 mmHg 88%
    22:00 +23°C° 0.1 mm 6 mps 755 mmHg 91%
    23:00 +23°C° 0.1 mm 6 mps 754 mmHg 90%
    Show more